When you browse on this site, cookies collect data to enhance your experience and personalize the content and advertising you see.
Visit our Privacy Policy to learn more. By continuing to use the site, you agree to this use of cookies and data.
  • Em Portugal
  • Lista de países
  • Para 7 dias
  • Temperatura da água
  • Mapa do tempo
  • Widgets de tempo
  • user-avatar
    Iniciar Sessão

    Previsão horária em Urishka

    Hoje, 25 Agosto, Domingo

    Tempo Temperatura Precipitação Vento Pressão Humidade
    00:00 +15°C° 0 mm 2 m/s 751 mmHg 70%
    01:00 +14°C° 0 mm 3 m/s 751 mmHg 74%
    02:00 +13°C° 0 mm 3 m/s 751 mmHg 77%
    03:00 +13°C° 0 mm 3 m/s 751 mmHg 80%
    04:00 +13°C° 0 mm 3 m/s 751 mmHg 83%
    05:00 +13°C° 0 mm 3 m/s 751 mmHg 85%
    06:00 +13°C° 0 mm 3 m/s 751 mmHg 88%
    07:00 +14°C° 0 mm 4 m/s 751 mmHg 82%
    08:00 +17°C° 0 mm 4 m/s 751 mmHg 77%
    09:00 +17°C° 0 mm 5 m/s 751 mmHg 71%
    10:00 +19°C° 0 mm 5 m/s 751 mmHg 68%
    11:00 +20°C° 0 mm 5 m/s 751 mmHg 64%
    12:00 +20°C° 0 mm 6 m/s 751 mmHg 60%
    13:00 +19°C° 0 mm 6 m/s 752 mmHg 63%
    14:00 +17°C° 0 mm 6 m/s 752 mmHg 66%
    15:00 +16°C° 0 mm 6 m/s 752 mmHg 69%
    16:00 +16°C° 0 mm 6 m/s 752 mmHg 71%
    17:00 +16°C° 0 mm 5 m/s 753 mmHg 73%
    18:00 +17°C° 0 mm 4 m/s 753 mmHg 75%
    19:00 +15°C° 0 mm 4 m/s 753 mmHg 79%
    20:00 +14°C° 0 mm 4 m/s 754 mmHg 83%
    21:00 +13°C° 0 mm 3 m/s 754 mmHg 87%
    22:00 +12°C° 0 mm 3 m/s 754 mmHg 89%
    23:00 +11°C° 0 mm 3 m/s 755 mmHg 90%

    Amanhã, 26 Agosto, Segunda-feira

    Tempo Temperatura Precipitação Vento Pressão Humidade
    00:00 +11°C° 0 mm 3 m/s 755 mmHg 91%
    01:00 +10°C° 0 mm 2 m/s 755 mmHg 93%
    02:00 +10°C° 0 mm 2 m/s 756 mmHg 94%
    03:00 +9°C° 0 mm 2 m/s 756 mmHg 95%
    04:00 +9°C° 0 mm 2 m/s 756 mmHg 95%
    05:00 +9°C° 0 mm 2 m/s 756 mmHg 95%
    06:00 +9°C° 0 mm 2 m/s 756 mmHg 95%
    07:00 +12°C° 0 mm 2 m/s 756 mmHg 88%
    08:00 +13°C° 0 mm 2 m/s 757 mmHg 81%
    09:00 +15°C° 0 mm 2 m/s 757 mmHg 74%
    10:00 +16°C° 0 mm 2 m/s 757 mmHg 69%
    11:00 +17°C° 0 mm 2 m/s 756 mmHg 65%
    12:00 +18°C° 0 mm 3 m/s 756 mmHg 61%
    13:00 +18°C° 0 mm 3 m/s 756 mmHg 59%
    14:00 +19°C° 0 mm 3 m/s 756 mmHg 57%
    15:00 +20°C° 0 mm 3 m/s 755 mmHg 55%
    16:00 +19°C° 0 mm 2 m/s 755 mmHg 60%
    17:00 +19°C° 0 mm 2 m/s 755 mmHg 65%
    18:00 +18°C° 0 mm 2 m/s 754 mmHg 70%
    19:00 +17°C° 0 mm 2 m/s 754 mmHg 73%
    20:00 +15°C° 0 mm 2 m/s 754 mmHg 76%
    21:00 +14°C° 0 mm 2 m/s 754 mmHg 79%
    22:00 +14°C° 0 mm 2 m/s 753 mmHg 81%
    23:00 +12°C° 0 mm 3 m/s 753 mmHg 82%

    Depois de amanhã, 27 Agosto, Terça-feira

    Tempo Temperatura Precipitação Vento Pressão Humidade
    00:00 +12°C° 0 mm 3 m/s 752 mmHg 84%
    01:00 +12°C° 0 mm 3 m/s 752 mmHg 83%
    02:00 +12°C° 0 mm 3 m/s 752 mmHg 83%
    03:00 +12°C° 0 mm 4 m/s 751 mmHg 83%
    04:00 +12°C° 0 mm 4 m/s 750 mmHg 82%
    05:00 +13°C° 0 mm 5 m/s 750 mmHg 80%
    06:00 +13°C° 0 mm 5 m/s 749 mmHg 78%
    07:00 +14°C° 0 mm 5 m/s 749 mmHg 77%
    08:00 +15°C° 0 mm 6 m/s 748 mmHg 75%
    09:00 +16°C° 0 mm 6 m/s 747 mmHg 74%
    10:00 +17°C° 0.4 mm 6 m/s 747 mmHg 74%
    11:00 +17°C° 0.4 mm 6 m/s 747 mmHg 74%
    12:00 +19°C° 0.4 mm 6 m/s 746 mmHg 75%
    13:00 +19°C° 1.1 mm 6 m/s 746 mmHg 74%
    14:00 +20°C° 1.1 mm 6 m/s 745 mmHg 73%
    15:00 +20°C° 1.1 mm 6 m/s 745 mmHg 72%
    16:00 +19°C° 1.4 mm 6 m/s 744 mmHg 75%
    17:00 +17°C° 1.4 mm 5 m/s 744 mmHg 78%
    18:00 +16°C° 1.4 mm 5 m/s 743 mmHg 81%
    19:00 +15°C° 0.2 mm 4 m/s 743 mmHg 85%
    20:00 +13°C° 0.2 mm 4 m/s 743 mmHg 88%
    21:00 +12°C° 0.2 mm 4 m/s 744 mmHg 92%
    22:00 +12°C° 0.1 mm 4 m/s 744 mmHg 91%
    23:00 +10°C° 0.1 mm 5 m/s 744 mmHg 91%

    28 Agosto, Quarta-feira

    Tempo Temperatura Precipitação Vento Pressão Humidade
    00:00 +10°C° 0.1 mm 6 m/s 744 mmHg 91%
    01:00 +8°C° 0 mm 6 m/s 744 mmHg 90%
    02:00 +7°C° 0 mm 6 m/s 744 mmHg 88%
    03:00 +5°C° 0 mm 6 m/s 744 mmHg 87%
    04:00 +5°C° 0 mm 6 m/s 745 mmHg 85%
    05:00 +5°C° 0 mm 6 m/s 745 mmHg 84%
    06:00 +5°C° 0 mm 7 m/s 745 mmHg 82%
    07:00 +5°C° 0 mm 7 m/s 745 mmHg 80%
    08:00 +6°C° 0 mm 7 m/s 745 mmHg 78%
    09:00 +6°C° 0 mm 8 m/s 746 mmHg 77%
    10:00 +6°C° 0 mm 8 m/s 746 mmHg 76%
    11:00 +6°C° 0 mm 8 m/s 746 mmHg 75%
    12:00 +6°C° 0 mm 8 m/s 747 mmHg 74%
    13:00 +6°C° 0.1 mm 7 m/s 747 mmHg 76%
    14:00 +6°C° 0.1 mm 7 m/s 747 mmHg 78%
    15:00 +6°C° 0.1 mm 7 m/s 747 mmHg 81%
    16:00 +6°C° 0 mm 7 m/s 748 mmHg 80%
    17:00 +6°C° 0 mm 7 m/s 748 mmHg 78%
    18:00 +8°C° 0 mm 7 m/s 748 mmHg 77%
    19:00 +8°C° 0 mm 6 m/s 748 mmHg 75%
    20:00 +7°C° 0 mm 6 m/s 748 mmHg 74%
    21:00 +7°C° 0 mm 6 m/s 748 mmHg 72%
    22:00 +7°C° 0 mm 6 m/s 748 mmHg 74%
    23:00 +7°C° 0 mm 6 m/s 748 mmHg 75%

    29 Agosto, Quinta-feira

    Tempo Temperatura Precipitação Vento Pressão Humidade
    00:00 +5°C° 0 mm 6 m/s 748 mmHg 76%
    01:00 +5°C° 0 mm 6 m/s 748 mmHg 77%
    02:00 +4°C° 0 mm 7 m/s 748 mmHg 78%
    03:00 +4°C° 0 mm 7 m/s 748 mmHg 79%
    04:00 +4°C° 0 mm 7 m/s 748 mmHg 80%
    05:00 +4°C° 0 mm 7 m/s 748 mmHg 80%
    06:00 +3°C° 0 mm 7 m/s 748 mmHg 81%
    07:00 +4°C° 0 mm 8 m/s 749 mmHg 78%
    08:00 +5°C° 0 mm 8 m/s 749 mmHg 76%
    09:00 +6°C° 0 mm 8 m/s 749 mmHg 73%
    10:00 +6°C° 0 mm 8 m/s 749 mmHg 73%
    11:00 +6°C° 0 mm 7 m/s 749 mmHg 73%
    12:00 +6°C° 0 mm 7 m/s 750 mmHg 73%
    13:00 +8°C° 0 mm 7 m/s 750 mmHg 74%
    14:00 +8°C° 0 mm 6 m/s 750 mmHg 74%
    15:00 +8°C° 0 mm 6 m/s 750 mmHg 75%
    16:00 +8°C° 0 mm 6 m/s 750 mmHg 75%
    17:00 +8°C° 0 mm 5 m/s 751 mmHg 76%
    18:00 +8°C° 0 mm 5 m/s 751 mmHg 76%
    19:00 +8°C° 0 mm 4 m/s 751 mmHg 78%
    20:00 +7°C° 0 mm 4 m/s 751 mmHg 80%
    21:00 +8°C° 0 mm 3 m/s 751 mmHg 82%
    22:00 +8°C° 0 mm 3 m/s 751 mmHg 83%
    23:00 +8°C° 0 mm 3 m/s 752 mmHg 83%

    30 Agosto, Sexta-feira

    Tempo Temperatura Precipitação Vento Pressão Humidade
    00:00 +8°C° 0 mm 3 m/s 752 mmHg 83%
    01:00 +7°C° 0 mm 3 m/s 752 mmHg 86%
    02:00 +5°C° 0 mm 3 m/s 752 mmHg 89%
    03:00 +4°C° 0 mm 3 m/s 751 mmHg 91%
    04:00 +4°C° 0 mm 3 m/s 752 mmHg 91%
    05:00 +4°C° 0 mm 3 m/s 752 mmHg 90%
    06:00 +4°C° 0 mm 3 m/s 752 mmHg 89%
    07:00 +6°C° 0 mm 4 m/s 751 mmHg 82%
    08:00 +7°C° 0 mm 4 m/s 751 mmHg 75%
    09:00 +9°C° 0 mm 5 m/s 751 mmHg 67%
    10:00 +10°C° 0 mm 5 m/s 751 mmHg 64%
    11:00 +12°C° 0 mm 5 m/s 751 mmHg 61%
    12:00 +13°C° 0 mm 5 m/s 751 mmHg 58%
    13:00 +12°C° 0.2 mm 5 m/s 750 mmHg 64%
    14:00 +10°C° 0.2 mm 5 m/s 750 mmHg 70%
    15:00 +10°C° 0.2 mm 6 m/s 750 mmHg 75%
    16:00 +9°C° 0.7 mm 5 m/s 750 mmHg 80%
    17:00 +8°C° 0.7 mm 4 m/s 750 mmHg 84%
    18:00 +7°C° 0.7 mm 4 m/s 750 mmHg 88%
    19:00 +7°C° 0 mm 3 m/s 750 mmHg 90%
    20:00 +5°C° 0 mm 3 m/s 751 mmHg 93%
    21:00 +5°C° 0 mm 3 m/s 751 mmHg 95%
    22:00 +4°C° 0 mm 3 m/s 751 mmHg 94%
    23:00 +4°C° 0 mm 3 m/s 751 mmHg 93%
    Mostrar mais